This is the latest recevied weather packets stored in our database for station/object W9LRT-WX. If no packets are shown the sender has not sent any weather packets the latest 10 day(s).
| Time | Temp. | Humidity | Pressure | Rain* | Wind** | Luminosity | Snow |
|---|---|---|---|---|---|---|---|
| 1777522649 | 4.44° C | 90% | 1014.2 hPa | 0 mm | - | 0 W/m² | - |
| 1777521749 | 4.44° C | 90% | 1014.2 hPa | 0 mm | - | 0 W/m² | - |
| 1777520849 | 4.44° C | 90% | 1014.2 hPa | 0 mm | - | 0 W/m² | - |
| 1777519953 | 4.44° C | 89% | 1014.2 hPa | 0 mm | - | 0 W/m² | - |
| 1777519050 | 5° C | 89% | 1014.1 hPa | 0 mm | - | 0 W/m² | - |
| 1777518150 | 5° C | 89% | 1014.2 hPa | 0 mm | - | 0 W/m² | - |
| 1777517249 | 5.56° C | 89% | 1014.2 hPa | 0 mm | - | 0 W/m² | - |
| 1777516351 | 5.56° C | 89% | 1014.1 hPa | 0 mm | - | 0 W/m² | - |
| 1777515449 | 5.56° C | 89% | 1013.9 hPa | 0 mm | - | 0 W/m² | - |
| 1777514549 | 6.11° C | 88% | 1013.7 hPa | 0 mm | - | 0 W/m² | - |
| 1777513649 | 6.11° C | 88% | 1013.6 hPa | 0 mm | - | 0 W/m² | - |
| 1777512750 | 6.11° C | 88% | 1013.6 hPa | 0 mm | - | 0 W/m² | - |
| 1777511851 | 6.67° C | 88% | 1013.3 hPa | 0 mm | - | 0 W/m² | - |
| 1777510949 | 6.67° C | 88% | 1013.1 hPa | 0 mm | - | 0 W/m² | - |
| 1777510050 | 6.67° C | 87% | 1012.8 hPa | 0 mm | - | 0 W/m² | - |
| 1777509151 | 6.67° C | 87% | 1012.8 hPa | 0 mm | - | 0 W/m² | - |
| 1777508249 | 7.22° C | 86% | 1012.6 hPa | 0 mm | - | 14 W/m² | - |
| 1777507350 | 7.78° C | 85% | 1012.5 hPa | 0 mm | - | 18 W/m² | - |
| 1777506449 | 7.78° C | 85% | 1012.3 hPa | 0 mm | - | 35 W/m² | - |
| 1777505549 | 8.33° C | 84% | 1012.2 hPa | 0 mm | - | 33 W/m² | - |
| 1777504650 | 8.33° C | 83% | 1012.3 hPa | 0 mm | - | 54 W/m² | - |
| 1777503749 | 8.89° C | 81% | 1012.2 hPa | 0 mm | - | 98 W/m² | - |
| 1777502849 | 10° C | 80% | 1012 hPa | 0 mm | - | 144 W/m² | - |
| 1777501951 | 10.56° C | 81% | 1012 hPa | 0 mm | - | 311 W/m² | - |
| 1777501049 | 10.56° C | 80% | 1011.8 hPa | 0 mm | - | 213 W/m² | - |
* Rain latest hour (hover to see other rain measurements)
** Current wind speed in m/s (hover to see current wind gust speed)